Location: Croisilles
(50.1998°N, 2.8793°E)
Time: 13:23:23
(UTC+00:00)

Meteor 2-10 Rocket - Pass Details

Date: 21 January 2021
Orbit: 733 x 885 km, 81.2° (Epoch: 27 February)

Event Time Altitude Azimuth Distance (km) Brightness Sun altitude
Rises 18:00:10 0° 346° (NNW) 3,421 6.9 -15.1°
Reaches altitude 10° 18:02:39 10° 344° (NNW) 2,459 6.2 -15.5°
Maximum altitude 18:08:12 73° 261° (W) 851 3.9 -16.3°
Drops below altitude 10° 18:13:27 10° 178° (S) 2,339 6.1 -17.1°
Sets 18:15:46 0° 176° (S) 3,241 6.8 -17.5°
